Terminal Aerodrome Forecast
Issued by NWS Blacksburg, VA

Home | Current Version | Previous Version | Text Only | Print | Product List | Glossary On
Versions: 1 2 3 4 5 6 7 8 9 10 11 12 13 14 15 16 17 18 19 20 21 22 23 24 25 26 27 28 29 30 31 32 33 34 35 36 37
000
FTUS41 KRNK 260538
TAFLYH
TAF
KLYH 260538Z 2606/2706 20005KT P6SM OVC045
     FM261000 21004KT P6SM VCSH OVC020
     FM261200 22004KT 4SM BR OVC012
     FM261300 23005KT P6SM SCT020
     FM261800 22006KT P6SM SCT060=

USA.gov is the U.S. government's official web portal to all federal, state and local government web resources and services.